Location: Newark
(21.1200°N, 73.4000°E)
Time: 14:59:22
(UTC+00:00)

Explorer 11/Cluster Stage 4 - Pass Details

Date: 23 January 2020
Orbit: 467 x 1259 km, 28.8° (Epoch: 23 February)

Event Time Altitude Azimuth Distance (km) Brightness Sun altitude
Rises 05:10:12 0° 190° (S) 3,971 10.6 38.7°
Maximum altitude 05:17:36 10° 144° (SE) 3,183 10.9 39.8°
Drops below altitude 10° 05:17:42 10° 144° (SE) 3,185 10.9 39.8°
Sets 05:25:16 0° 100° (E) 4,195 10.8 40.8°
